SP3VKM-10 Weather Reports


time (UTC)temp
C
wind
direction
speed
KPH
gust
KPH
rain 1hr
cm
rain 24hr
cm
rain mn
cm
humidity
%
barometer
mb
20260505041110 21 0.0 0.0 0.00 0.00 0.00 99 1011.7
20260505035110 21 0.0 0.0 0.00 0.00 0.00 99 1011.9
20260505033110 21 0.0 0.0 0.00 0.00 0.00 99 1012.2
20260505025110 21 0.0 0.0 0.00 0.00 0.00 99 1012.6
20260505023110 21 0.0 0.0 0.00 0.00 0.00 99 1012.7
20260505021111 21 0.0 0.0 0.00 0.00 0.00 99 1012.6
20260505015110 21 0.0 0.0 0.00 0.00 0.00 99 1013.0
20260505013110 21 0.0 0.0 0.00 0.00 0.00 99 1012.7
20260505011110 21 0.0 0.0 0.00 0.00 0.00 99 1012.7
20260505005110 21 0.0 0.0 0.00 0.00 0.00 99 1012.7
20260505003110 20 0.0 0.0 0.00 0.00 0.00 99 1012.8
20260505001110 20 0.0 0.0 0.00 0.00 0.00 99 1012.9
20260504235111 20 0.0 0.0 0.00 0.00 0.00 99 1013.0
20260504233110 20 0.0 0.0 0.00 0.00 0.00 99 1012.9
20260504231111 20 0.0 0.0 0.00 0.00 0.00 99 1012.8
20260504225110 21 0.0 0.0 0.00 0.00 0.00 99 1013.0
20260504223111 21 0.0 0.0 0.00 0.00 0.00 99 1013.0
20260504205111 22 0.0 0.0 0.00 0.00 0.00 99 1013.0
20260504203110 22 0.0 0.0 0.00 0.00 0.00 23 1013.0
20260504193111 22 0.0 0.0 0.00 0.00 0.00 1 1012.9
20260504185111 23 0.0 0.0 0.00 0.00 0.00 6 1012.8
20260504183111 23 0.0 0.0 0.00 0.00 0.00 23 1012.6
20260504181111 24 0.0 0.0 0.00 0.00 0.00 40 1012.6
20260504173110 25 0.0 0.0 0.00 0.00 0.00 1 1012.5
20260504171110 26 0.0 0.0 0.00 0.00 0.00 16 1012.5
20260504141110 26 0.0 0.0 0.00 0.00 0.00 1 1013.1
20260504081111 26 0.0 0.0 0.00 0.00 0.00 13 1013.8